HB9DOZ-13 Weather Reports


time (UTC)temp
F
wind
direction
speed
knots
gust
knots
rain 1hr
in
rain 24hr
in
rain mn
in
humidity
%
barometer
mb
20260506194515 47 331 0.0 0.9 0.00 0.03 0.03 89
20260506193536 47 353 0.0 0.9 0.00 0.03 0.03 89
20260506192516 48 333 0.0 0.9 0.00 0.03 0.03 90
20260506191536 48 336 0.9 2.6 0.00 0.03 0.03 90
20260506190516 48 318 0.0 0.9 0.00 0.03 0.03 90
20260506185517 48 328 0.0 0.9 0.00 0.03 0.03 89
20260506184558 48 328 0.0 0.9 0.00 0.03 0.03 89
20260506183515 48 337 0.0 1.7 0.00 0.03 0.03 88
20260506182516 48 331 0.0 1.7 0.00 0.03 0.03 88
20260506181516 49 351 0.0 1.7 0.00 0.03 0.03 88
20260506180516 48 323 0.0 2.6 0.00 0.03 0.03 89
20260506175556 48 330 0.0 1.7 0.00 0.03 0.03 89
20260506174517 49 335 0.0 2.6 0.00 0.03 0.03 89
20260506173518 49 324 0.0 1.7 0.00 0.03 0.03 90
20260506172535 49 9 0.0 0.9 0.00 0.03 0.03 91
20260506171515 49 8 0.0 0.9 0.00 0.03 0.03 92
20260506170516 49 331 0.0 0.9 0.00 0.03 0.03 92
20260506165536 49 0.0 0.0 0.00 0.03 0.03 94
20260506164517 49 309 0.0 0.9 0.00 0.03 0.03 94
20260506163517 49 233 0.0 0.9 0.00 0.03 0.03 94
20260506162517 49 294 0.0 0.9 0.00 0.03 0.03 94
20260506161515 49 343 0.0 0.9 0.00 0.03 0.03 94
20260506160516 49 323 0.0 0.9 0.00 0.03 0.03 94
20260506155536 49 229 0.0 1.7 0.00 0.03 0.03 94
20260506154516 49 263 0.0 0.9 0.00 0.03 0.03 94
20260506153536 49 252 0.0 1.7 0.00 0.03 0.03 95
20260506152517 49 338 0.0 1.7 0.00 0.03 0.03 96
20260506151517 48 327 0.0 0.9 0.00 0.03 0.03 95
20260506150515 48 310 0.0 0.9 0.00 0.03 0.03 95
20260506145535 48 279 0.0 1.7 0.00 0.03 0.03 95
20260506144536 48 257 0.9 3.5 0.00 0.03 0.03 94
20260506143516 49 261 0.9 3.5 0.01 0.03 0.03 95
20260506142516 49 259 0.0 1.7 0.01 0.03 0.03 96
20260506141517 49 254 0.0 0.9 0.01 0.03 0.03 95
20260506140517 49 252 0.9 3.5 0.01 0.03 0.03 95
20260506135515 49 273 0.0 1.7 0.01 0.03 0.03 96
20260506134515 48 265 0.0 0.9 0.01 0.03 0.03 95
20260506133516 49 260 0.0 0.9 0.00 0.02 0.02 95
20260506132517 49 246 0.0 1.7 0.00 0.02 0.02 94
20260506131516 49 239 1.7 6.1 0.00 0.02 0.02 93
20260506130617 49 233 2.6 9.6 0.00 0.02 0.02 92
20260506125517 50 235 1.7 7.8 0.00 0.02 0.02 96
20260506124515 49 230 0.0 4.3 0.02 0.02 0.02 97
20260506123515 49 264 0.0 2.6 0.02 0.02 0.02 97
20260506122516 49 243 0.9 5.2 0.02 0.02 0.02 96
20260506121516 49 231 1.7 7.8 0.02 0.02 0.02 96
20260506120516 49 211 1.7 6.1 0.02 0.02 0.02 97
20260506115517 49 207 0.9 3.5 0.02 0.02 0.02 98
20260506114517 49 244 0.0 2.6 0.00 0.00 0.00 97
20260506113515 49 231 1.7 6.1 0.00 0.00 0.00 98
20260506112516 48 253 0.9 2.6 0.00 0.00 0.00 97
20260506111516 48 306 0.0 1.7 0.00 0.00 0.00 97
20260506110536 48 262 0.0 2.6 0.00 0.00 0.00 98
20260506105516 49 268 0.9 3.5 0.00 0.00 0.00 98
20260506104517 49 256 1.7 7.0 0.00 0.00 0.00 98
20260506103517 49 226 2.6 8.7 0.00 0.00 0.00 98
20260506102515 50 224 4.3 10.4 0.00 0.00 0.00 98
20260506101516 50 235 1.7 6.1 0.00 0.00 0.00 97
20260506100516 51 223 1.7 7.0 0.00 0.00 0.00 97
20260506095516 51 243 0.0 2.6 0.00 0.00 0.00 97
20260506094517 51 224 0.0 0.9 0.00 0.00 0.00 96
20260506093517 51 211 0.9 4.3 0.00 0.00 0.00 95
20260506092517 51 203 0.0 0.9 0.00 0.00 0.00 94
20260506091515 51 0.0 0.0 0.00 0.00 0.00 94
20260506090517 51 0.0 0.0 0.00 0.00 0.00 93
20260506085516 51 0.0 0.0 0.00 0.00 0.00 94
20260506084517 51 0.0 0.0 0.00 0.00 0.00 95
20260506083517 51 141 0.0 0.9 0.00 0.00 0.00 95
20260506082516 51 146 0.9 2.6 0.00 0.00 0.00 95
20260506081517 51 158 2.6 3.5 0.00 0.00 0.00 94
20260506080515 51 170 1.7 3.5 0.00 0.00 0.00 93
20260506073516 51 129 0.9 1.7 0.00 0.00 0.00 95
20260506072516 51 140 0.0 0.9 0.00 0.00 0.00 95
20260506071517 51 147 0.0 1.7 0.00 0.00 0.00 95
20260506070517 50 141 0.0 0.9 0.00 0.00 0.00 97
20260506062516 49 121 0.0 0.9 0.00 0.00 0.00 98
20260506061516 48 0.0 0.0 0.00 0.00 0.00 98
20260506060516 48 148 0.0 0.9 0.00 0.00 0.00 97
20260506050516 48 3 0.0 2.6 0.00 0.00 0.00 96
20260506044517 48 0.0 0.0 0.00 0.00 0.00 96
20260506043535 48 0.0 0.0 0.00 0.00 0.00 96
20260506042515 47 348 0.0 0.9 0.00 0.00 0.00 96
20260506041516 48 13 0.9 1.7 0.00 0.00 0.00 96
20260506040516 48 0.0 0.0 0.00 0.00 0.00 95
20260506035516 48 344 0.0 0.9 0.00 0.00 0.00 95
20260506034517 48 344 0.0 0.9 0.00 0.00 0.00 95
20260506033517 48 341 0.0 0.9 0.00 0.00 0.00 95
20260506032535 48 1 1.7 1.7 0.00 0.00 0.00 94
20260506031515 48 16 0.0 0.9 0.00 0.00 0.00 94
20260506030516 48 345 0.9 1.7 0.00 0.00 0.00 94
20260506025516 48 350 0.9 1.7 0.00 0.00 0.00 94
20260506024516 48 0.0 0.0 0.00 0.00 0.00 94
20260506023558 48 9 0.9 1.7 0.00 0.00 0.00 94
20260506022517 48 349 0.9 1.7 0.00 0.00 0.00 93
20260506021515 48 10 0.9 1.7 0.00 0.00 0.00 94
20260506020515 48 109 0.0 0.9 0.00 0.00 0.00 94
20260506015515 49 0.0 0.0 0.00 0.00 0.00 93
20260506014516 50 120 0.0 1.7 0.00 0.00 0.00 91
20260506013516 51 0.0 0.0 0.00 0.00 0.00 90
20260506012516 51 0.0 0.0 0.00 0.00 0.00 91
20260506011517 51 0.0 0.0 0.00 0.00 0.00 91
20260506010514 51 0.0 0.0 0.00 0.00 0.00 91
20260506005515 51 264 0.0 0.9 0.00 0.00 0.00 90
20260506004516 51 261 0.0 0.9 0.00 0.00 0.00 91
20260506003516 51 305 0.0 0.9 0.00 0.00 0.00 90
20260506002516 51 233 0.0 0.9 0.00 0.00 0.00 89
20260506001517 51 0.0 0.0 0.00 0.00 0.00 90
20260506000537 51 266 0.0 0.9 0.00 0.00 0.00 89
20260505235515 51 227 0.0 2.6 0.00 0.00 0.00 89
20260505234515 51 332 0.0 0.9 0.00 0.00 0.00 90
20260505233516 51 0.0 0.0 0.00 0.00 0.00 89
20260505232516 51 0.0 0.0 0.00 0.00 0.00 89
20260505231516 51 0.0 0.0 0.00 0.00 0.00 89
20260505230537 51 0.0 0.0 0.00 0.00 0.00 90
20260505225517 51 0.0 0.0 0.00 0.00 0.00 90
20260505224517 51 0.0 0.0 0.00 0.00 0.00 90
20260505223515 50 0.0 0.0 0.00 0.00 0.00 90
20260505222535 50 0.0 0.0 0.00 0.00 0.00 90
20260505221616 50 0.0 0.0 0.00 0.00 0.00 90
20260505220516 50 350 0.0 0.9 0.00 0.00 0.00 90
20260505215516 50 347 0.9 0.9 0.00 0.00 0.00 90
20260505214517 49 348 0.9 0.9 0.00 0.00 0.00 90
20260505213537 49 6 0.9 1.7 0.00 0.00 0.00 90
20260505212515 49 348 0.9 1.7 0.00 0.00 0.00 90
20260505211515 49 346 0.9 0.9 0.00 0.00 0.00 89
20260505210516 49 0.0 0.0 0.00 0.00 0.00 89
20260505205517 49 0.0 0.0 0.00 0.00 0.00 89
20260505204556 49 350 1.7 1.7 0.00 0.00 0.00 89
20260505203517 50 350 1.7 1.7 0.00 0.00 0.00 87
20260505202518 49 351 0.9 0.9 0.00 0.00 0.00 88
20260505201515 49 351 0.9 1.7 0.00 0.00 0.00 89
20260505200515 49 352 0.9 1.7 0.00 0.00 0.00 89
20260505195516 50 7 1.7 2.6 0.00 0.00 0.00 88